Weather History for KVVG - March, 2013

Change the Weather History Date:

Monday, March 4, 2013

  Actual Average (KLEE) Record (KLEE)
Temperature  
Mean Temperature 48 °F -  
Max Temperature 64 °F 75 °F 86 °F (1964)
Min Temperature 32 °F 51 °F 25 °F (1980)
Degree Days  
Heating Degree Days 17    
Moisture  
Dew Point 27 °F    
Average Humidity 56    
Maximum Humidity 93    
Minimum Humidity 19    
Precipitation  
Precipitation 0.00 in - - ()
Sea Level Pressure  
Sea Level Pressure 30.19 in    
Wind  
Wind Speed 1 mph (NNE)    
Max Wind Speed 10 mph    
Max Gust Speed -    
Visibility 9 miles    
Events      
Averages and records for this station are not official NWS values.
T = Trace of Precipitation, MM = Missing Value Source: NWS Daily Summary

Daily Weather History Graph

Daily Weather History Graph

Search for Another Location

Airport or City:

Trip Planner

Search our weather history database for the weather conditions in past years. The results will help you decide how hot, cold, wet, or windy it might be!

Date:

Astronomy

Mar. 04, 2013 Rise Set
Actual Time 6:49 AM EST 6:29 PM EST
Civil Twilight 6:25 AM EST 6:53 PM EST
Nautical Twilight 5:58 AM EST 7:20 PM EST
Astronomical Twilight 5:31 AM EST 7:48 PM EST
Moon 12:38 AM EST (3/4) 11:30 AM EST (3/4)
Length of Visible Light 12h 27m
Length of Day
11h 40m
Waning Gibbous, 52% of the Moon is Illuminated
Mar 4
Waning Gibbous
Mar 4
Last Quarter
Mar 11
New
Mar 19
First Quarter
Mar 27
Full

Hourly Weather History & Observations

Time (EST) Temp. Windchill Dew Point Humidity Pressure Visibility Wind Dir Wind Speed Gust Speed Precip Events Conditions
12:15 AM 35.6 °F - 30.2 °F 81% 30.17 in 10.0 mi Calm Calm - N/A   Unknown
12:35 AM 35.6 °F - 30.2 °F 81% 30.17 in 10.0 mi Calm Calm - N/A   Unknown
12:55 AM 35.6 °F - 30.2 °F 81% 30.17 in 10.0 mi Calm Calm - N/A   Unknown
1:15 AM 33.8 °F - 30.2 °F 87% 30.18 in 9.0 mi Calm Calm - N/A   Unknown
1:35 AM 33.8 °F - 30.2 °F 87% 30.18 in 9.0 mi Calm Calm - N/A   Unknown
1:55 AM 33.8 °F - 30.2 °F 87% 30.18 in 9.0 mi Calm Calm - N/A   Unknown
2:15 AM 32.0 °F - 30.2 °F 93% 30.18 in 9.0 mi Calm Calm - N/A   Unknown
2:35 AM 32.0 °F - 30.2 °F 93% 30.17 in 10.0 mi Calm Calm - N/A   Unknown
2:55 AM 32.0 °F - 30.2 °F 93% 30.17 in 10.0 mi Calm Calm - N/A   Unknown
3:15 AM 32.0 °F - 30.2 °F 93% 30.15 in 10.0 mi Calm Calm - N/A   Unknown
3:35 AM 32.0 °F - 30.2 °F 93% 30.16 in 9.0 mi Calm Calm - N/A   Unknown
3:55 AM 32.0 °F - 30.2 °F 93% 30.16 in 8.0 mi Calm Calm - N/A   Unknown
4:35 AM 32.0 °F - 30.2 °F 93% 30.17 in 9.0 mi Calm Calm - N/A   Unknown
4:55 AM 32.0 °F - 30.2 °F 93% 30.17 in 10.0 mi Calm Calm - N/A   Unknown
5:15 AM 32.0 °F - 30.2 °F 93% 30.17 in 9.0 mi Calm Calm - N/A   Unknown
5:55 AM 32.0 °F - 28.4 °F 87% 30.19 in 9.0 mi Calm Calm - N/A   Unknown
6:15 AM 32.0 °F - 30.2 °F 93% 30.19 in 10.0 mi Calm Calm - N/A   Unknown
6:35 AM 32.0 °F - 30.2 °F 93% 30.20 in 9.0 mi Calm Calm - N/A   Unknown
6:55 AM 32.0 °F - 30.2 °F 93% 30.21 in 6.0 mi Calm Calm - N/A   Mist
7:15 AM 32.0 °F - 30.2 °F 93% 30.22 in 7.0 mi Calm Calm - N/A   Unknown
7:55 AM 37.4 °F - 30.2 °F 75% 30.24 in 8.0 mi Calm Calm - N/A   Unknown
8:15 AM 39.2 °F - 30.2 °F 70% 30.25 in 9.0 mi Calm Calm - N/A   Unknown
8:35 AM 42.8 °F - 28.4 °F 57% 30.25 in 9.0 mi Calm Calm - N/A   Unknown
8:55 AM 46.4 °F 43.5 °F 26.6 °F 46% 30.25 in 10.0 mi North 5.8 mph - N/A   Unknown
9:15 AM 46.4 °F 41.5 °F 24.8 °F 43% 30.25 in 10.0 mi North 10.4 mph - N/A   Unknown
9:35 AM 48.2 °F - 21.2 °F 34% 30.25 in 10.0 mi North 9.2 mph - N/A   Unknown
9:55 AM 51.8 °F - 21.2 °F 30% 30.25 in 9.0 mi North 9.2 mph - N/A   Unknown
10:15 AM 51.8 °F - 21.2 °F 30% 30.24 in 9.0 mi NNE 6.9 mph - N/A   Unknown
10:35 AM 51.8 °F - 23.0 °F 33% 30.24 in 8.0 mi NE 3.5 mph - N/A   Unknown
10:55 AM 53.6 °F - 21.2 °F 28% 30.23 in 9.0 mi NNE 6.9 mph - N/A   Unknown
11:15 AM 53.6 °F - 19.4 °F 26% 30.23 in 9.0 mi Calm Calm - N/A   Unknown
11:35 AM 55.4 °F - 17.6 °F 23% 30.23 in 8.0 mi NW 5.8 mph - N/A   Unknown
11:55 AM 57.2 °F - 17.6 °F 21% 30.22 in 9.0 mi Calm Calm - N/A   Unknown
12:15 PM 59.0 °F - 19.4 °F 22% 30.21 in 8.0 mi West 6.9 mph - N/A   Unknown
12:35 PM 59.0 °F - 17.6 °F 20% 30.20 in 9.0 mi NW 6.9 mph - N/A   Unknown
12:55 PM 60.8 °F - 17.6 °F 19% 30.18 in 9.0 mi NNE 4.6 mph - N/A   Unknown
1:15 PM 60.8 °F - 19.4 °F 20% 30.17 in 8.0 mi Calm Calm - N/A   Unknown
1:35 PM 62.6 °F - 19.4 °F 19% 30.17 in 8.0 mi Calm Calm - N/A   Unknown
1:55 PM 62.6 °F - 21.2 °F 20% 30.16 in 9.0 mi Calm Calm - N/A   Unknown
2:15 PM 62.6 °F - 21.2 °F 20% 30.15 in 8.0 mi Calm Calm - N/A   Unknown
2:35 PM 64.4 °F - 23.0 °F 21% 30.14 in 2.5 mi ESE 5.8 mph - N/A   Haze
2:55 PM 64.4 °F - 23.0 °F 21% 30.14 in 4.0 mi SSE 5.8 mph - N/A   Haze
3:15 PM 64.4 °F - 23.0 °F 21% 30.14 in 10.0 mi South 3.5 mph - N/A   Unknown
4:55 PM 64.4 °F - 23.0 °F 21% 30.13 in 9.0 mi Calm Calm - N/A   Unknown
5:55 PM 62.6 °F - 23.0 °F 22% 30.14 in 9.0 mi Calm Calm - N/A   Unknown
6:15 PM 62.6 °F - 24.8 °F 24% 30.15 in 9.0 mi Calm Calm - N/A   Unknown
6:55 PM 57.2 °F - 28.4 °F 33% 30.16 in 10.0 mi Calm Calm - N/A   Unknown
7:15 PM 55.4 °F - 30.2 °F 38% 30.16 in 9.0 mi Calm Calm - N/A   Unknown
7:55 PM 55.4 °F - 32.0 °F 41% 30.17 in 10.0 mi Calm Calm - N/A   Unknown
8:15 PM 53.6 °F - 32.0 °F 44% 30.17 in 9.0 mi Calm Calm - N/A   Unknown
8:35 PM 51.8 °F - 32.0 °F 47% 30.18 in 10.0 mi Calm Calm - N/A   Unknown
8:55 PM 51.8 °F - 33.8 °F 50% 30.18 in 10.0 mi Calm Calm - N/A   Unknown
9:15 PM 50.0 °F - 32.0 °F 50% 30.19 in 10.0 mi Calm Calm - N/A   Unknown
9:55 PM 48.2 °F - 33.8 °F 58% 30.18 in 10.0 mi Calm Calm - N/A   Unknown
10:35 PM 46.4 °F - 35.6 °F 66% 30.18 in 10.0 mi Calm Calm - N/A   Unknown
10:55 PM 44.6 °F - 35.6 °F 71% 30.18 in 10.0 mi Calm Calm - N/A   Unknown
11:15 PM 44.6 °F 41.4 °F 35.6 °F 71% 30.17 in 10.0 mi East 5.8 mph - N/A   Unknown
11:35 PM 44.6 °F - 35.6 °F 71% 30.17 in 10.0 mi Calm Calm - N/A   Unknown
11:55 PM 44.6 °F - 35.6 °F 71% 30.16 in 10.0 mi Calm Calm - N/A   Unknown